DW9924 Weather Reports


Display with metric or nautical units.
time (UTC)temp
F
wind
direction
speed
MPH
gust
MPH
rain 1hr
in
rain 24hr
in
rain mn
in
humidity
%
barometer
mb
20260506134405 67 214 1.0 3.0 0.00 1.24 1.24 76 1010.3
20260506133905 67 236 1.0 8.0 0.00 1.24 1.24 78 1010.3
20260506133405 66 227 5.0 8.0 0.00 1.24 1.24 76 1010.4
20260506131904 66 243 3.0 8.0 0.00 1.24 1.24 79 1010.4
20260506131405 67 145 1.0 6.0 0.00 1.24 1.24 80 1010.4
20260506130907 67 141 3.0 6.0 0.00 1.24 1.24 81 1010.3
20260506130407 66 151 3.0 8.0 0.00 1.24 1.24 81 1010.3
20260506124905 66 186 3.0 5.0 0.00 1.24 1.24 81 1010.3
20260506123905 65 167 4.0 7.0 0.00 1.24 1.24 83 1010.2
20260506123405 65 171 3.0 8.0 0.00 1.24 1.24 83 1010.2
20260506121904 65 160 3.0 7.0 0.00 1.24 1.24 82 1010.1
20260506120904 65 161 3.0 7.0 0.00 1.24 1.24 82 1010.1
20260506120404 65 156 3.0 8.0 0.00 1.24 1.24 81 1010.0
20260506114904 67 163 2.0 7.0 0.00 1.24 1.24 80 1010.0
20260506114404 67 123 2.0 7.0 0.00 1.24 1.24 80 1010.0
20260506111920 65 137 1.0 5.0 0.00 1.24 1.24 84 1010.0
20260506110905 64 184 2.0 7.0 0.00 1.24 1.24 83 1010.0
20260506110404 65 167 3.0 6.0 0.00 1.24 1.24 82 1010.0
20260506104905 65 149 3.0 5.0 0.00 1.24 1.24 82 1010.1
20260506103904 66 174 2.0 3.0 0.00 1.24 1.24 81 1010.0
20260506103404 66 234 2.0 5.0 0.00 1.24 1.24 81 1010.1
20260506101404 64 233 2.0 3.0 0.00 1.24 1.24 84 1010.1
20260506100910 64 187 1.0 3.0 0.00 1.24 1.24 84 1010.0
20260506094905 64 221 2.0 3.0 0.00 1.24 1.24 85 1009.9
20260506094405 64 193 1.0 3.0 0.00 1.24 1.24 85 1009.9
20260506093405 64 230 1.0 5.0 0.00 1.24 1.24 86 1010.0
20260506091909 64 249 1.0 5.0 0.00 1.24 1.24 87 1009.8
20260506091407 64 215 1.0 3.0 0.00 1.24 1.24 86 1009.7
20260506090906 64 221 2.0 6.0 0.00 1.24 1.24 86 1009.7
20260506090410 64 249 1.0 6.0 0.00 1.24 1.24 87 1009.5
20260506084907 65 229 1.0 9.0 0.00 1.24 1.24 88 1009.4
20260506084407 65 251 3.0 5.0 0.00 1.24 1.24 88 1009.4
20260506083909 64 195 2.0 8.0 0.00 1.24 1.24 89 1009.3
20260506083407 64 203 2.0 12.0 0.00 1.24 1.24 91 1009.3
20260506081908 63 114 2.0 3.0 0.00 1.24 1.24 91 1009.1
20260506081407 63 74 3.0 8.0 0.00 1.24 1.24 92 1009.1
20260506080908 63 227 3.0 9.0 0.00 1.24 1.24 92 1009.0
20260506080406 63 279 3.0 14.0 0.00 1.24 1.24 92 1009.1
20260506073407 62 146 7.0 14.0 0.01 1.25 1.24 91 1009.0
20260506071906 62 143 7.0 14.0 0.07 1.25 1.24 91 1008.8
20260506071406 62 151 9.0 15.0 0.07 1.25 1.24 91 1008.9
20260506070407 62 150 7.0 15.0 0.07 1.25 1.24 91 1008.9
20260506061906 61 174 5.0 12.0 0.00 1.22 1.17 88 1008.5
20260506061406 61 147 5.0 12.0 0.00 1.24 1.17 88 1008.4
20260506060906 61 139 6.0 12.0 0.00 1.26 1.17 88 1008.6
20260506051406 60 90 3.0 10.0 0.01 1.85 1.17 88 1008.6
20260506050407 59 143 2.0 9.0 0.01 1.90 1.17 88 1008.4
20260506044907 59 49 1.0 3.0 0.02 2.03 1.17 88 1008.5
20260506044407 59 92 2.0 3.0 0.02 2.07 1.17 88 1008.5
20260506043907 59 45 2.0 3.0 0.02 2.09 1.17 88 1008.6
20260506043406 59 31 1.0 5.0 0.02 2.12 1.17 88 1008.5
20260506041906 59 37 2.0 3.0 0.02 2.14 1.17 87 1008.8
20260506041406 59 113 2.0 7.0 0.02 2.14 1.17 87 1008.8
20260506040906 59 37 3.0 6.0 0.02 2.15 1.17 87 1008.8
20260506040406 59 27 3.0 8.0 0.02 2.19 1.17 87 1009.0
20260506034407 58 29 3.0 7.0 0.02 2.31 1.15 87 1008.9
20260506033906 58 36 3.0 7.0 0.07 2.35 1.15 87 1008.8
20260506033407 57 40 3.0 9.0 0.16 2.35 1.15 87 1008.8
20260506031907 57 18 6.0 13.0 0.37 2.40 1.15 89 1008.7
20260506031409 57 58 5.0 12.0 0.50 2.42 1.15 89 1008.6
20260506030906 57 78 2.0 5.0 0.64 2.42 1.15 89 1008.8
20260506024906 58 273 0.0 3.0 0.92 2.41 1.14 89 1009.0
20260506023906 58 58 1.0 3.0 0.88 2.35 1.08 89 1010.0
20260506021906 59 343 2.0 3.0 0.69 2.10 0.78 89 1009.6
20260506020906 59 315 2.0 6.0 0.45 1.85 0.51 89 1009.7
20260506020406 59 327 1.0 2.0 0.27 1.66 0.31 88 1010.0
20260506013410 60 328 1.0 5.0 0.17 1.54 0.17 87 1010.4
20260506011908 60 36 1.0 3.0 0.08 1.46 0.09 86 1010.3
20260506011406 60 107 1.0 3.0 0.06 1.45 0.07 86 1010.4
20260506010906 60 24 2.0 8.0 0.06 1.45 0.06 86 1010.2
20260506010406 60 40 2.0 6.0 0.05 1.43 0.05 85 1010.1
20260506004909 61 49 1.0 3.0 0.02 1.41 0.02 85 1010.3
20260506004406 61 109 1.0 2.0 0.01 1.40 0.01 84 1010.5
20260506003906 61 104 1.0 3.0 0.01 1.40 0.01 84 1010.5
20260506003407 62 109 2.0 6.0 0.01 1.40 0.01 84 1010.5
20260506001406 62 58 1.0 2.0 0.01 1.40 0.01 83 1010.6
20260506000907 62 61 1.0 3.0 0.00 1.39 0.00 83 1010.5
20260506000408 62 36 1.0 3.0 0.00 1.39 0.00 83 1010.5
20260505234905 62 109 1.0 3.0 0.00 1.39 0.00 83 1010.8
20260505234406 62 77 1.0 3.0 0.00 1.39 0.00 83 1010.9
20260505233909 62 358 1.0 2.0 0.00 1.39 0.00 83 1011.1
20260505233409 62 59 1.0 3.0 0.00 1.39 0.00 83 1011.2
20260505231913 62 47 1.0 3.0 0.00 1.39 0.00 84 1011.4
20260505230905 62 108 1.0 5.0 0.00 1.39 0.00 84 1011.5
20260505230407 62 114 1.0 3.0 0.00 1.39 0.00 84 1011.7
20260505224906 62 45 1.0 3.0 0.00 1.39 0.00 84 1011.7
20260505224406 62 79 1.0 3.0 0.00 1.39 0.00 84 1011.7
20260505223406 62 88 2.0 3.0 0.00 1.39 0.00 84 1011.9
20260505221909 62 146 1.0 5.0 0.00 1.39 0.00 84 1012.1
20260505221405 61 140 2.0 3.0 0.00 1.39 0.00 85 1012.2
20260505220906 61 120 1.0 6.0 0.00 1.39 0.00 84 1012.1
20260505220405 61 112 1.0 3.0 0.00 1.39 0.00 84 1012.0
20260505214907 61 60 2.0 3.0 0.00 1.39 1.39 84 1012.2
20260505213407 61 61 0.0 2.0 0.00 1.39 1.39 84 1012.1
20260505211905 61 55 1.0 3.0 0.00 1.39 1.39 84 1012.4
20260505211406 61 50 1.0 3.0 0.00 1.39 1.39 84 1012.4
20260505210907 61 31 1.0 2.0 0.00 1.39 1.39 84 1012.3
20260505210407 61 20 1.0 6.0 0.00 1.39 1.39 84 1012.3
20260505204905 61 59 1.0 3.0 0.00 1.39 1.39 84 1012.4
20260505204406 61 15 1.0 2.0 0.00 1.39 1.39 84 1012.4
20260505203406 62 104 0.0 3.0 0.00 1.39 1.39 83 1012.7
20260505201906 62 86 1.0 3.0 0.00 1.39 1.39 83 1012.7
20260505201406 62 95 0.0 2.0 0.00 1.39 1.39 82 1012.8
20260505200906 62 97 1.0 3.0 0.00 1.39 1.39 83 1012.8
20260505200406 62 4 1.0 3.0 0.00 1.39 1.39 83 1012.7
20260505194910 62 149 1.0 2.0 0.00 1.39 1.39 83 1012.8
20260505194408 62 121 1.0 3.0 0.00 1.39 1.39 83 1012.7
20260505193905 62 105 1.0 2.0 0.00 1.39 1.39 83 1012.7
20260505193406 62 109 1.0 3.0 0.00 1.39 1.39 83 1012.6
20260505191906 62 116 1.0 2.0 0.00 1.39 1.39 83 1012.5
20260505191405 62 171 2.0 3.0 0.00 1.39 1.39 83 1012.5
20260505190907 62 136 1.0 3.0 0.00 1.39 1.39 83 1012.5
20260505184906 62 128 2.0 5.0 0.00 1.39 1.39 83 1012.4
20260505183405 63 138 2.0 6.0 0.00 1.39 1.39 82 1012.4
20260505181905 63 139 3.0 7.0 0.00 1.39 1.39 82 1012.4
20260505181407 63 149 2.0 6.0 0.00 1.39 1.39 81 1012.4
20260505180407 63 136 3.0 6.0 0.00 1.39 1.39 81 1012.4
20260505174905 64 140 1.0 5.0 0.00 1.39 1.39 79 1012.3
20260505174407 64 136 3.0 7.0 0.00 1.39 1.39 79 1012.2
20260505173406 65 136 2.0 7.0 0.00 1.39 1.39 78 1012.3
20260505171905 65 81 2.0 3.0 0.00 1.39 1.39 77 1012.2
20260505170905 65 229 0.0 3.0 0.00 1.39 1.39 76 1012.2
20260505170412 66 254 1.0 2.0 0.00 1.39 1.39 77 1012.2
20260505164912 66 139 0.0 3.0 0.00 1.39 1.39 75 1012.3
20260505164405 66 120 1.0 3.0 0.00 1.39 1.39 74 1012.3
20260505163905 66 161 1.0 3.0 0.00 1.39 1.39 74 1012.3
20260505163405 66 134 1.0 5.0 0.00 1.39 1.39 74 1012.2
20260505161905 66 162 1.0 3.0 0.00 1.39 1.39 76 1012.3
20260505161408 66 197 1.0 2.0 0.00 1.39 1.39 76 1012.3
20260505160905 65 227 1.0 3.0 0.00 1.39 1.39 76 1012.3
20260505160405 65 237 2.0 3.0 0.00 1.39 1.39 76 1012.4
20260505151905 66 178 0.0 3.0 0.00 1.39 1.39 76 1012.6
20260505151405 66 189 1.0 2.0 0.00 1.39 1.39 77 1012.6
20260505150905 65 138 1.0 3.0 0.00 1.39 1.39 78 1012.6
20260505150405 65 163 0.0 7.0 0.00 1.39 1.39 78 1012.6
20260505140406 67 168 1.0 6.0 0.00 1.39 1.39 75 1012.6